View from above orbital plane
|
View from above satellite
|
Ground track
|
The orbit data is extracted from the following two-line orbital elements,
1 27601U 02056E 21025.81727086 -.00000094 00000-0 -19188-4 0 9994
2 27601 98.2041 55.8690 0071623 335.9789 197.5605 14.31993292946519
Epoch (UTC): | 25 January 2021 19:36:52 |
Eccentricity: | 0.0071623 |
inclination: | 98.2041° |
perigee height: | 734 km |
apogee height: | 836 km |
right ascension of ascending node: | 55.8690° |
argument of perigee: | 335.9789° |
revolutions per day: | 14.31993292 |
mean anomaly at epoch: | 197.5605° |
orbit number at epoch: | 94651 |
The dashed part of the orbit path shows where the satellite is in the earth's shadow,
|
|